Temp
19 16 15 15 14 15 15 14 14 15 15 15 15 16 16 16 16 17 17 16 15 15 15 16 16 16 14 13 12 11 11 11 11 11 10 10 10 9 9 9 9 8 8 9 9 8 8 8 7 7 7 7 7 6 6 5 6 6 5 5 5 5 5 5 6 5 5 5 4 4 4 4 3 3 3 3 3 4 4 4 5 5 5 5 5 5
18 15 14 15 15 15 15 15 15 15 15 15 15 16 16 16 15 16 16 16 15 15 15 15 16 16 15 13 12 11 11 11 11 10 10 10 9 9 9 8 8 8 8 8 8 8 8 8 7 7 7 7 6 6 6 5 5 5 5 5 5 5 4 5 5 5 5 4 4 4 3 3 3 3 2 2 2 3 3 3 3 4 5 5 5 5
16 15 15 15 15 15 15 15 15 15 15 15 15 15 15 15 15 15 16 16 16 14 14 15 15 16 16 14 12 11 11 11 10 10 9 9 9 9 9 8 8 8 8 8 8 8 8 7 7 7 7 6 6 6 5 5 5 4 4 4 4 4 4 4 5 5 4 4 4 4 4 3 3 3 3 2 2 2 2 2 3 3 4 5 5 5
16 15 15 15 15 14 15 16 16 15 15 15 15 15 14 15 14 14 15 15 15 14 14 15 14 14 14 13 12 11 11 10 9 9 9 9 9 8 8 8 8 8 7 7 7 7 7 7 7 6 6 6 6 5 5 5 4 4 4 4 4 4 4 4 4 4 4 4 4 4 4 3 3 3 3 3 2 2 2 2 2 3 3 4 5 5
15 15 15 15 15 15 16 16 15 14 15 15 15 14 14 14 14 13 14 14 14 14 14 14 13 13 13 12 11 11 10 9 9 9 9 9 9 9 9 9 8 8 8 7 7 7 7 6 6 6 6 5 5 5 5 4 4 4 4 4 4 3 3 3 3 4 4 3 3 3 3 3 2 2 2 2 2 2 2 2 2 2 3 3 4 4
16 16 15 15 16 16 17 16 14 13 14 15 14 14 14 14 13 13 14 13 13 14 14 13 13 13 14 13 11 10 9 9 9 9 9 9 9 9 8 8 8 8 8 7 6 6 6 6 6 5 5 5 5 5 4 4 4 4 3 3 3 3 3 3 3 3 3 3 3 2 2 2 2 2 2 2 2 2 2 2 2 2 2 2 3 3
16 16 16 16 16 17 17 15 14 14 13 14 15 15 14 14 13 13 13 12 12 13 14 14 13 13 14 15 12 9 8 9 9 9 9 9 9 9 8 8 8 7 7 6 6 6 6 5 5 5 5 5 5 4 4 4 4 3 3 3 3 3 3 3 3 3 2 2 2 2 2 2 2 2 2 2 2 2 2 2 2 2 3 2 2 2
16 16 16 15 16 16 16 15 14 14 12 13 15 15 14 13 13 13 13 12 12 13 14 15 14 13 13 14 11 9 9 9 9 9 9 9 9 8 8 8 7 7 6 6 5 5 5 5 5 5 4 4 4 4 3 3 3 3 3 2 2 2 2 2 2 2 2 1 1 1 1 1 2 1 1 1 2 2 2 2 2 2 2 2 2 3
15 15 14 14 15 15 15 14 15 14 12 14 15 14 14 13 13 13 12 12 13 13 13 14 15 12 12 13 11 9 10 9 9 9 9 9 8 8 8 7 7 6 6 5 5 5 4 4 4 4 4 4 3 3 3 3 2 2 2 2 2 2 2 1 1 1 1 1 1 1 1 1 1 1 1 1 1 1 1 1 2 2 2 2 2 2
14 13 13 13 14 14 14 14 14 13 13 14 15 14 14 13 14 13 12 12 12 12 12 13 14 11 11 13 11 10 10 9 9 9 9 8 8 8 7 7 6 6 5 5 4 4 4 4 4 4 4 3 3 3 2 2 2 1 1 1 1 1 1 1 1 1 1 0 0 0 0 0 0 0 0 0 1 1 1 1 1 2 2 2 2 2
13 12 12 13 13 13 14 14 14 14 13 14 14 13 13 14 15 14 13 13 12 12 13 13 13 12 10 11 11 9 9 8 8 8 8 8 8 7 7 6 6 5 5 4 4 4 4 4 4 4 3 3 3 2 2 2 1 1 0 0 0 0 0 0 0 0 -0 -1 -1 -1 -1 -0 -0 -0 -0 0 0 0 1 1 1 1 1 1 2 2
13 13 13 13 13 13 13 14 14 14 13 13 13 13 12 13 14 14 14 14 12 12 13 13 12 11 10 10 10 8 7 7 7 7 6 7 7 7 7 6 5 5 4 4 4 3 3 3 3 3 3 3 2 2 2 1 1 0 -0 -0 -0 -0 -0 -0 -0 -1 -1 -1 -1 -1 -1 -1 -1 -0 -0 -0 -0 -0 0 0 1 1 1 1 1 2
14 14 13 13 13 13 13 14 14 14 14 14 13 12 11 10 12 11 12 12 11 12 13 12 12 11 10 10 9 8 7 7 7 7 7 7 7 6 6 5 5 4 4 4 3 3 3 3 3 3 2 2 2 2 1 1 0 0 0 -0 -0 -1 -1 -1 -1 -1 -1 -1 -1 -1 -1 -1 -1 -1 -1 -1 -0 -0 -0 0 0 0 1 1 1 1
14 14 13 13 13 13 13 13 13 13 13 13 13 11 10 9 9 8 10 10 10 11 12 12 11 10 11 10 9 8 8 8 8 8 8 8 7 6 5 5 5 4 4 3 3 3 3 2 3 2 2 1 1 1 1 1 0 0 -0 -0 -1 -1 -2 -2 -2 -2 -2 -2 -2 -2 -1 -1 -2 -2 -1 -1 -1 -0 -0 -0 0 0 0 0 0 1
14 14 14 13 13 14 13 12 12 12 12 13 13 12 10 10 8 8 9 9 9 9 10 11 10 10 10 10 9 9 9 9 9 9 8 7 6 6 5 5 5 4 4 3 3 3 2 2 2 2 1 1 1 1 1 0 0 -0 -1 -1 -1 -2 -2 -2 -2 -3 -3 -3 -2 -2 -2 -2 -2 -2 -2 -2 -1 -1 -1 -1 -0 -0 0 0 0 0
14 15 14 13 13 13 13 12 11 11 11 13 14 12 10 10 9 8 9 9 9 8 9 10 11 11 11 10 9 9 9 10 9 9 8 7 6 6 5 5 4 4 3 3 2 2 2 2 2 2 1 1 0 0 0 0 -0 -1 -1 -1 -2 -2 -2 -2 -3 -3 -3 -3 -3 -3 -3 -3 -3 -3 -3 -3 -2 -2 -1 -1 -1 -0 -0 0 0 0
13 14 13 12 12 12 11 12 12 11 12 13 12 11 10 10 9 8 8 9 9 8 8 10 10 10 10 9 9 9 9 10 9 8 7 7 6 5 4 4 3 3 3 2 2 2 2 2 2 2 1 1 0 0 0 -0 -1 -1 -1 -2 -2 -2 -3 -3 -4 -4 -4 -4 -4 -4 -4 -3 -3 -3 -3 -3 -3 -2 -2 -2 -1 -1 -0 -0 -0 -0
11 12 13 14 13 11 11 11 12 11 11 12 11 10 10 10 9 9 8 8 7 6 7 9 8 8 8 8 9 9 9 8 8 7 7 6 5 4 3 3 3 3 2 2 2 2 2 2 2 1 1 1 0 0 -0 -1 -1 -1 -2 -2 -2 -3 -3 -4 -4 -4 -5 -5 -5 -5 -4 -4 -3 -3 -3 -3 -3 -2 -2 -2 -2 -1 -1 -1 -1 -1
11 11 13 15 14 11 10 11 11 11 11 12 11 10 10 8 8 9 8 6 6 5 6 7 7 7 7 8 8 8 7 7 7 6 6 5 5 4 3 3 3 2 2 2 1 1 2 2 1 1 1 0 -0 -0 -1 -1 -2 -2 -2 -2 -3 -3 -4 -4 -5 -5 -5 -5 -5 -5 -5 -4 -4 -4 -3 -3 -3 -3 -2 -2 -2 -2 -1 -1 -1 -1
11 11 12 15 15 12 10 11 12 11 11 11 11 10 10 9 8 8 7 6 6 5 5 6 5 6 8 8 8 7 7 6 6 5 5 4 4 3 3 2 2 2 1 1 1 1 1 1 1 0 0 -0 -1 -1 -1 -2 -2 -2 -3 -3 -3 -4 -5 -5 -5 -6 -6 -6 -6 -5 -5 -5 -5 -4 -4 -4 -4 -3 -3 -2 -2 -2 -2 -2 -2 -2
11 11 11 13 15 13 12 12 12 11 11 10 10 9 8 8 8 7 7 7 6 5 4 4 4 6 8 9 8 7 7 6 5 5 4 4 3 3 2 2 2 1 1 1 1 1 1 1 0 -0 -0 -1 -1 -1 -2 -2 -3 -3 -3 -4 -4 -5 -5 -6 -6 -6 -6 -6 -6 -6 -6 -6 -6 -5 -5 -5 -5 -4 -4 -3 -3 -2 -2 -2 -2 -3
10 11 10 11 12 13 12 10 10 10 10 10 10 9 7 7 7 6 6 6 6 5 4 3 3 5 7 9 8 7 6 6 5 4 3 3 3 3 2 2 1 1 1 0 0 0 0 0 -0 -1 -1 -1 -2 -2 -2 -3 -3 -3 -4 -4 -5 -6 -6 -7 -7 -7 -7 -6 -6 -6 -6 -6 -6 -6 -5 -5 -5 -5 -5 -4 -3 -3 -3 -3 -3 -3
8 9 9 10 11 11 10 9 9 10 10 10 9 9 8 7 6 5 5 5 5 5 5 4 3 4 8 9 8 7 6 5 5 4 3 3 2 2 2 1 1 1 0 0 -0 -0 -0 -0 -1 -1 -2 -2 -2 -2 -3 -3 -4 -4 -4 -5 -6 -6 -7 -7 -7 -7 -7 -7 -7 -7 -7 -7 -7 -7 -6 -6 -5 -5 -5 -4 -4 -4 -3 -3 -3 -3
8 9 9 10 12 11 8 8 9 8 8 9 8 8 7 6 6 6 5 4 3 3 4 3 3 4 8 8 7 6 6 5 4 4 3 2 2 2 1 1 1 0 -0 -0 -0 -0 -0 -1 -1 -2 -2 -2 -3 -3 -3 -4 -4 -5 -5 -6 -6 -7 -7 -7 -8 -8 -7 -7 -7 -7 -7 -7 -7 -7 -6 -6 -6 -5 -5 -5 -5 -4 -4 -3 -3 -3
8 11 11 10 11 10 9 9 9 8 8 8 7 6 6 5 5 5 4 3 2 4 4 3 2 4 7 7 6 6 5 4 4 3 2 2 2 1 1 0 0 -0 -1 -1 -1 -1 -1 -2 -2 -2 -3 -3 -3 -3 -4 -4 -5 -5 -6 -6 -7 -7 -7 -8 -8 -8 -8 -8 -8 -8 -8 -8 -7 -7 -7 -6 -6 -6 -6 -5 -5 -5 -4 -4 -4 -4
7 11 11 10 9 9 9 9 9 9 9 9 7 5 5 4 4 5 4 3 3 4 4 3 2 4 5 6 5 5 4 3 3 2 2 2 1 1 0 -0 -0 -1 -1 -1 -1 -2 -2 -2 -3 -3 -3 -3 -4 -4 -4 -5 -5 -6 -6 -7 -8 -8 -8 -8 -8 -8 -8 -8 -8 -8 -8 -8 -7 -7 -7 -6 -6 -6 -6 -6 -5 -5 -5 -4 -4 -4
7 10 10 10 10 10 9 9 10 9 9 8 8 6 4 4 4 4 4 3 4 3 3 3 3 3 4 4 4 4 3 2 2 1 1 1 1 0 -0 -0 -1 -1 -1 -1 -2 -2 -2 -3 -3 -3 -3 -4 -4 -5 -5 -5 -6 -6 -7 -8 -8 -8 -8 -8 -8 -9 -9 -9 -9 -9 -8 -8 -8 -8 -7 -7 -6 -6 -6 -6 -6 -5 -5 -4 -4 -4
8 9 9 9 9 9 9 9 9 9 8 8 9 7 5 3 3 4 3 4 4 2 1 3 3 2 2 3 3 3 2 1 1 1 1 0 0 -0 -1 -1 -1 -1 -2 -2 -2 -3 -3 -3 -3 -3 -4 -4 -5 -5 -5 -6 -6 -7 -8 -8 -8 -8 -9 -9 -9 -9 -9 -9 -9 -9 -9 -9 -8 -8 -8 -7 -7 -7 -7 -6 -6 -5 -5 -4 -4 -4
7 8 8 8 8 8 8 8 8 8 8 8 9 8 6 4 3 3 3 3 3 1 1 3 3 2 2 3 3 2 1 1 1 0 0 0 -0 -1 -1 -2 -2 -2 -2 -3 -3 -3 -4 -4 -4 -4 -5 -5 -5 -5 -6 -7 -7 -8 -8 -8 -9 -9 -9 -9 -9 -9 -10 -10 -10 -9 -9 -9 -9 -8 -8 -8 -8 -7 -7 -7 -6 -6 -6 -5 -4 -4
6 8 8 7 7 7 7 8 9 9 9 9 8 8 7 5 3 3 3 3 3 2 2 3 2 2 2 3 2 2 1 1 0 0 -0 -1 -1 -1 -2 -2 -2 -3 -3 -3 -3 -4 -4 -4 -4 -5 -5 -5 -6 -6 -6 -7 -8 -8 -9 -9 -9 -9 -9 -10 -10 -10 -10 -10 -10 -10 -10 -9 -9 -9 -8 -8 -8 -8 -8 -7 -7 -7 -7 -6 -5 -4
6 8 8 7 6 7 8 9 9 9 8 7 7 7 6 5 4 3 3 3 3 2 2 2 1 1 2 2 2 1 1 0 -0 -1 -1 -1 -2 -2 -2 -2 -3 -3 -3 -4 -4 -4 -4 -5 -5 -5 -5 -6 -6 -7 -7 -8 -8 -9 -9 -9 -9 -10 -10 -10 -10 -10 -10 -10 -10 -10 -10 -10 -10 -9 -9 -9 -9 -9 -8 -8 -8 -7 -7 -7 -6 -5
6 7 7 7 5 6 9 9 9 8 7 6 5 5 5 5 4 3 3 3 2 2 1 1 -0 0 2 2 0 0 0 -1 -1 -1 -2 -2 -2 -2 -3 -3 -3 -4 -4 -4 -4 -5 -5 -5 -5 -5 -6 -6 -7 -7 -8 -8 -9 -9 -10 -10 -10 -10 -10 -11 -11 -11 -11 -11 -11 -11 -10 -10 -10 -9 -9 -9 -9 -9 -9 -8 -8 -8 -8 -7 -6 -6
5 5 6 6 6 7 9 9 8 7 7 6 5 5 5 4 3 2 2 3 3 2 1 -0 0 1 1 0 -1 -1 -1 -2 -2 -2 -2 -2 -2 -3 -3 -3 -4 -4 -4 -4 -5 -5 -5 -6 -6 -6 -6 -7 -7 -8 -8 -9 -10 -10 -10 -10 -11 -11 -11 -11 -11 -11 -11 -11 -11 -11 -11 -10 -10 -10 -10 -10 -10 -10 -9 -9 -8 -8 -8 -7 -7 -6
5 5 6 6 6 6 7 7 7 7 7 6 5 4 4 3 2 2 2 2 2 2 1 1 1 1 0 -1 -1 -1 -2 -2 -2 -2 -2 -2 -2 -3 -3 -4 -4 -4 -5 -5 -5 -5 -6 -6 -6 -6 -7 -7 -8 -8 -9 -10 -10 -10 -11 -11 -11 -11 -11 -11 -11 -11 -11 -11 -11 -11 -11 -11 -11 -10 -10 -10 -10 -10 -9 -9 -9 -9 -8 -8 -7 -6
6 5 6 6 5 6 7 6 5 6 6 5 3 3 3 3 2 2 2 2 2 2 1 1 0 -0 -1 -1 -1 -1 -2 -2 -2 -2 -2 -2 -3 -3 -4 -4 -4 -4 -5 -5 -5 -6 -6 -6 -7 -7 -7 -8 -8 -9 -9 -10 -10 -11 -11 -11 -11 -12 -12 -12 -12 -12 -12 -12 -11 -11 -11 -11 -11 -11 -11 -11 -11 -10 -10 -10 -9 -9 -9 -8 -8 -7
5 5 6 6 6 6 6 4 4 6 6 4 3 3 3 2 2 1 0 1 1 1 0 -0 -1 -1 -1 -1 -1 -2 -2 -2 -2 -2 -2 -2 -3 -3 -4 -4 -4 -5 -5 -5 -6 -6 -6 -7 -7 -8 -8 -8 -9 -9 -10 -10 -11 -11 -12 -12 -12 -12 -12 -12 -12 -12 -12 -12 -12 -12 -11 -11 -11 -11 -11 -11 -11 -11 -10 -10 -10 -9 -9 -9 -8 -7
5 6 6 6 6 6 5 4 4 6 6 3 2 3 2 2 1 0 -1 -0 1 1 -0 -1 -1 -1 -1 -2 -2 -2 -2 -3 -3 -3 -2 -3 -3 -3 -4 -4 -4 -5 -5 -5 -6 -6 -6 -7 -8 -8 -8 -9 -9 -10 -10 -11 -11 -12 -12 -12 -12 -13 -13 -13 -12 -12 -12 -12 -12 -12 -12 -12 -12 -12 -12 -11 -11 -11 -11 -10 -10 -10 -9 -9 -8 -8
6 6 6 6 6 6 5 4 4 4 5 4 2 2 3 2 2 1 -1 -1 0 0 -0 -1 -1 -2 -2 -2 -2 -2 -3 -4 -5 -4 -3 -3 -3 -4 -4 -4 -4 -5 -5 -5 -6 -6 -7 -7 -8 -8 -9 -9 -10 -10 -11 -12 -12 -12 -12 -13 -13 -13 -13 -13 -13 -13 -12 -12 -12 -12 -12 -12 -12 -12 -12 -12 -12 -11 -11 -11 -10 -10 -10 -9 -8 -8
5 6 6 5 5 5 4 3 3 3 4 4 2 3 3 2 2 1 -1 -1 0 0 -0 -1 -2 -2 -2 -3 -3 -3 -4 -5 -6 -4 -3 -3 -4 -4 -4 -4 -5 -5 -5 -6 -6 -7 -7 -8 -8 -9 -9 -10 -10 -11 -12 -12 -12 -13 -13 -13 -13 -13 -13 -13 -13 -13 -13 -13 -13 -13 -13 -13 -12 -12 -12 -12 -12 -12 -11 -11 -11 -10 -10 -9 -9 -8
4 5 5 5 5 5 5 4 3 3 4 3 2 2 2 2 2 0 -1 -0 1 0 -0 -1 -2 -2 -2 -3 -3 -3 -5 -5 -5 -4 -4 -4 -4 -4 -5 -5 -5 -5 -6 -6 -7 -7 -8 -8 -9 -9 -10 -10 -11 -11 -12 -12 -13 -13 -13 -13 -14 -13 -13 -13 -13 -13 -13 -13 -13 -13 -13 -13 -13 -13 -13 -12 -12 -12 -12 -11 -11 -10 -10 -9 -9 -8
5 5 5 5 5 5 4 3 3 4 4 3 2 2 2 2 1 -1 -1 0 1 -0 -1 -1 -2 -2 -2 -3 -3 -4 -4 -4 -4 -4 -4 -4 -4 -5 -5 -5 -5 -6 -6 -7 -7 -7 -8 -8 -9 -10 -10 -11 -11 -12 -12 -13 -13 -14 -14 -14 -14 -14 -14 -14 -14 -14 -14 -14 -14 -13 -13 -13 -13 -13 -13 -13 -12 -12 -12 -11 -11 -11 -10 -9 -9 -8
6 5 5 5 4 4 4 4 4 4 3 3 3 3 2 1 -0 -1 0 1 0 -1 -1 -2 -2 -2 -3 -3 -3 -4 -4 -4 -4 -4 -4 -4 -5 -5 -5 -6 -6 -6 -7 -7 -7 -8 -8 -9 -10 -10 -11 -11 -12 -12 -13 -13 -14 -14 -14 -14 -14 -14 -14 -14 -14 -14 -14 -14 -14 -14 -14 -14 -14 -13 -13 -13 -13 -12 -12 -11 -11 -10 -10 -9 -8 -8
5 5 6 5 5 4 4 4 3 3 4 4 3 3 2 1 0 1 1 1 -0 -1 -1 -2 -2 -2 -3 -3 -3 -4 -4 -4 -4 -4 -5 -5 -5 -6 -6 -6 -6 -7 -7 -7 -8 -8 -9 -9 -10 -11 -11 -12 -12 -13 -13 -14 -14 -14 -14 -14 -14 -14 -14 -15 -15 -15 -15 -15 -15 -14 -14 -14 -14 -14 -13 -13 -13 -12 -12 -11 -11 -10 -9 -9 -8 -8
5 5 5 5 4 4 4 4 4 5 5 5 4 2 2 2 2 1 0 -1 -1 -1 -2 -2 -3 -3 -3 -3 -4 -4 -4 -5 -5 -5 -5 -6 -6 -6 -6 -6 -7 -7 -7 -8 -8 -8 -9 -10 -11 -11 -12 -12 -13 -13 -14 -14 -15 -15 -15 -15 -15 -15 -15 -15 -15 -15 -15 -15 -15 -15 -15 -14 -14 -14 -14 -13 -13 -12 -11 -11 -10 -10 -9 -9 -8 -7
6 5 5 4 4 4 4 4 5 6 6 5 3 3 2 2 2 1 -0 -1 -1 -2 -2 -3 -3 -3 -3 -3 -4 -4 -5 -5 -5 -5 -6 -6 -6 -6 -7 -7 -7 -8 -8 -8 -9 -9 -10 -11 -11 -12 -12 -13 -13 -14 -14 -15 -15 -15 -15 -15 -15 -15 -15 -16 -16 -16 -16 -16 -15 -15 -15 -15 -14 -14 -14 -13 -12 -12 -11 -11 -10 -10 -9 -8 -8 -7
5 5 4 4 4 5 5 5 6 5 4 3 3 3 2 2 1 0 -1 -1 -2 -2 -2 -3 -3 -3 -3 -4 -4 -5 -5 -5 -6 -6 -6 -6 -7 -7 -7 -8 -8 -8 -8 -9 -9 -10 -10 -11 -12 -12 -13 -13 -14 -14 -15 -15 -15 -15 -15 -15 -15 -16 -16 -17 -17 -16 -16 -16 -16 -15 -15 -15 -15 -14 -14 -13 -13 -12 -11 -11 -10 -10 -9 -8 -8 -7
5 4 4 4 4 3 4 5 6 4 3 3 3 3 2 1 1 0 -1 -1 -2 -2 -2 -2 -3 -3 -4 -4 -4 -5 -5 -6 -6 -6 -6 -7 -7 -7 -8 -8 -8 -8 -9 -9 -10 -11 -11 -12 -12 -13 -13 -14 -14 -15 -15 -15 -16 -16 -16 -16 -16 -16 -17 -17 -17 -17 -16 -16 -16 -16 -16 -15 -15 -14 -14 -13 -13 -12 -12 -11 -10 -10 -9 -8 -8 -7
4 3 3 4 3 3 4 5 5 3 3 3 3 2 1 1 0 -0 -1 -1 -1 -2 -2 -3 -3 -3 -4 -4 -5 -5 -6 -6 -6 -6 -7 -7 -7 -8 -8 -8 -8 -9 -9 -10 -11 -11 -12 -12 -13 -13 -14 -14 -15 -15 -16 -16 -16 -16 -16 -16 -16 -17 -17 -17 -17 -17 -16 -16 -16 -16 -16 -15 -15 -14 -14 -13 -13 -12 -12 -11 -10 -10 -9 -9 -8 -7
4 4 4 4 3 3 4 5 4 2 2 3 2 2 1 0 -0 -1 -1 -1 -2 -2 -2 -3 -3 -4 -4 -4 -5 -5 -6 -6 -6 -6 -7 -7 -8 -8 -8 -8 -8 -9 -10 -10 -11 -12 -12 -13 -13 -14 -14 -15 -15 -16 -16 -16 -16 -16 -16 -17 -17 -17 -18 -17 -17 -17 -17 -17 -17 -16 -16 -15 -15 -14 -14 -14 -13 -12 -12 -11 -10 -10 -9 -8 -7 -7
4 4 4 3 2 2 3 3 2 1 1 1 1 1 0 -0 -1 -1 -1 -2 -2 -2 -3 -4 -4 -4 -4 -4 -5 -5 -6 -6 -6 -7 -7 -8 -8 -8 -8 -9 -9 -10 -10 -11 -12 -12 -13 -13 -14 -14 -15 -15 -16 -16 -16 -16 -17 -17 -17 -17 -17 -18 -18 -18 -17 -17 -17 -17 -17 -17 -16 -15 -15 -15 -14 -14 -13 -12 -12 -11 -10 -9 -8 -8 -7 -6
3 3 3 2 1 1 2 3 2 1 0 1 1 0 -0 -1 -1 -2 -2 -2 -2 -2 -3 -4 -4 -4 -4 -5 -5 -5 -6 -6 -7 -7 -8 -8 -8 -8 -9 -9 -10 -10 -11 -11 -12 -13 -13 -14 -14 -15 -15 -16 -16 -16 -16 -17 -17 -17 -17 -17 -18 -18 -18 -18 -18 -18 -18 -18 -17 -17 -16 -16 -15 -15 -15 -14 -13 -13 -12 -11 -10 -9 -8 -7 -6 -6
Height
803 816 827 830 833 832 830 831 831 830 828 827 827 823 821 820 817 810 805 804 805 807 804 799 798 799 805 809 811 814 816 817 820 821 823 824 825 827 827 828 828 828 827 826 826 826 825 824 823 823 821 819 817 815 813 811 808 806 804 802 799 796 795 792 789 787 786 785 783 782 781 780 778 777 776 775 774 771 769 766 764 762 761 759 757 757
809 825 835 833 832 831 830 830 829 828 827 826 826 823 820 820 819 812 807 805 805 809 806 800 800 797 799 804 808 813 816 817 819 821 824 825 826 827 827 828 828 827 827 826 826 825 824 823 822 821 819 818 815 812 810 808 805 804 802 800 797 795 793 791 788 785 784 783 782 780 779 777 775 774 773 772 771 770 768 766 763 761 759 757 755 753
821 832 834 831 830 830 828 826 826 825 825 826 824 823 824 822 820 812 806 806 807 811 808 801 800 796 795 802 808 812 815 817 819 821 824 825 826 827 827 828 827 827 826 825 825 824 823 822 821 820 818 816 813 810 808 806 804 802 800 799 796 794 792 790 787 784 783 782 781 778 776 774 773 772 771 769 768 767 766 764 762 760 757 755 752 750
831 835 831 829 830 830 827 823 824 825 824 825 825 827 828 825 825 821 811 809 808 809 805 800 802 800 798 804 808 811 814 817 821 823 824 825 826 827 827 826 826 826 826 825 824 823 822 821 820 819 817 814 812 808 806 805 804 801 799 797 795 793 791 789 786 784 782 781 779 776 774 772 771 770 769 767 765 764 762 761 760 758 755 752 750 748
833 832 829 829 828 827 825 823 828 831 827 825 827 831 830 824 826 825 816 812 809 805 801 802 806 802 800 806 809 812 816 819 822 822 824 824 824 825 825 824 825 825 825 825 824 823 822 821 820 818 816 813 810 808 805 804 803 800 798 796 794 791 789 787 785 783 781 779 777 774 772 770 769 768 767 765 763 761 759 757 756 754 752 750 748 746
831 829 828 829 826 823 824 826 832 835 832 829 828 829 827 823 824 821 817 818 816 808 801 804 809 802 795 798 805 814 819 820 821 822 822 823 822 823 824 824 824 825 825 825 824 823 821 820 819 817 815 811 809 807 805 803 801 799 796 794 792 790 787 785 784 782 779 777 775 773 771 770 768 766 765 763 761 758 756 754 752 751 749 748 745 744
828 826 827 828 826 823 824 829 834 835 837 834 827 824 824 823 823 820 818 821 820 811 801 801 809 806 796 791 800 815 820 819 821 821 821 821 822 823 825 825 825 826 826 825 824 823 822 820 817 815 813 810 808 806 804 802 800 798 795 793 791 789 786 784 782 780 779 776 775 773 771 770 767 765 762 761 759 756 753 752 750 747 746 745 744 742
829 828 829 828 826 826 828 833 833 834 840 834 823 823 823 822 822 818 818 821 819 811 803 798 802 806 800 795 804 814 816 818 821 820 820 821 823 824 825 826 826 826 826 825 824 823 821 819 816 814 811 808 807 805 803 801 798 796 794 792 790 787 785 783 782 780 778 776 774 772 770 768 766 763 760 758 756 754 751 749 747 745 743 742 741 740
832 832 834 834 831 832 833 834 831 833 839 831 822 824 823 821 819 814 817 818 814 814 810 800 799 808 806 797 807 814 812 816 819 818 820 821 823 825 825 826 826 826 826 826 825 823 820 818 816 813 810 808 806 804 802 800 798 796 793 791 789 787 784 782 781 779 777 775 773 770 768 765 763 761 758 756 753 751 749 747 745 742 740 739 738 737
835 836 839 838 836 836 834 832 830 833 835 826 822 824 821 818 811 809 816 815 814 817 814 804 801 814 813 797 804 813 811 817 820 818 821 823 824 825 824 826 826 826 827 826 825 822 820 818 816 814 810 808 805 803 802 800 797 795 793 791 788 786 784 781 779 777 775 774 771 769 767 764 761 758 756 754 751 749 746 744 742 740 738 736 735 734
838 840 840 838 838 837 834 831 829 830 830 826 826 824 820 814 804 805 810 811 817 815 808 805 804 816 821 806 808 817 818 824 826 823 825 824 823 823 823 824 825 825 826 825 823 821 820 818 815 812 809 806 804 802 801 798 796 795 792 790 788 785 782 779 777 775 773 771 769 767 765 762 758 755 753 750 748 746 744 741 739 737 735 734 733 732
839 839 838 837 838 836 833 830 827 828 829 829 830 826 824 818 805 805 806 807 817 814 804 805 806 815 821 813 814 823 826 827 827 826 827 823 822 823 823 824 824 825 824 823 822 820 818 815 812 810 807 804 803 801 799 797 795 793 790 788 785 782 780 778 775 773 771 768 766 763 761 758 755 752 750 747 744 743 741 738 736 734 732 731 730 729
838 838 838 838 838 836 835 832 829 829 829 830 831 832 837 834 825 824 821 818 820 814 807 808 812 818 815 811 817 823 824 825 823 824 823 821 822 822 823 824 823 824 823 821 821 820 817 814 810 808 806 804 802 799 797 795 793 790 788 785 783 780 778 776 774 771 768 765 762 760 757 754 752 749 747 744 741 739 737 735 733 731 729 728 727 726
839 838 838 838 837 835 835 836 836 835 832 832 833 839 849 851 853 853 839 830 827 817 810 810 818 823 812 809 818 820 819 821 820 820 819 818 820 820 821 822 822 822 821 820 819 817 815 812 809 806 805 803 801 798 795 793 790 788 786 783 781 778 776 774 771 768 765 762 759 757 754 751 748 745 743 741 738 735 733 731 729 728 726 725 724 723
847 842 839 839 838 836 836 839 843 842 839 836 832 838 850 852 863 866 848 841 841 830 818 814 818 821 813 812 817 815 815 816 815 815 815 816 818 819 820 820 820 820 819 818 817 815 813 810 808 805 803 802 799 797 794 791 788 786 783 781 779 776 774 771 768 766 763 760 757 755 751 748 745 742 740 738 735 732 729 728 726 724 722 721 720 719
849 842 839 840 838 837 839 841 843 844 842 836 830 839 850 850 856 860 848 841 844 840 828 818 813 809 807 811 814 814 813 810 811 812 813 816 818 819 820 819 819 819 817 818 817 815 812 808 806 804 801 799 797 794 792 789 787 784 781 779 777 774 771 769 767 764 761 758 755 752 748 745 742 740 737 734 731 729 726 724 723 720 719 718 717 716
854 844 839 841 841 840 843 842 841 843 840 834 836 846 850 846 850 857 851 839 841 847 834 818 815 811 810 814 813 813 812 808 811 814 815 818 818 820 822 821 821 819 817 817 816 814 811 807 804 802 799 797 795 792 789 787 785 782 779 777 774 772 769 767 765 763 760 756 751 748 745 742 740 737 734 731 728 725 723 721 719 718 716 715 714 713
864 854 838 835 840 842 844 843 841 842 841 839 846 850 846 845 847 852 856 851 852 857 838 821 825 827 826 824 813 811 813 812 815 816 816 818 820 822 823 822 821 819 818 817 815 813 809 805 803 800 798 796 793 790 787 785 783 780 778 775 772 770 767 765 762 760 758 754 749 745 741 738 736 733 730 727 724 722 719 718 716 715 713 712 712 710
866 862 842 830 836 844 846 845 842 842 841 840 845 848 849 858 859 852 857 863 865 866 848 830 831 832 829 823 815 815 817 818 819 818 819 821 821 823 822 821 820 818 817 815 813 811 807 803 801 798 796 794 792 789 785 782 780 778 776 773 770 768 765 763 760 757 755 751 746 742 738 735 732 729 726 723 721 718 715 714 713 711 710 709 709 708
864 866 852 832 832 842 844 842 841 842 844 842 844 847 849 857 862 858 859 863 866 868 859 845 838 831 822 816 817 820 819 820 823 822 823 823 823 824 822 820 819 816 815 813 811 809 805 802 800 797 795 793 790 788 784 781 779 776 774 771 768 766 763 761 759 755 750 746 742 739 736 733 729 726 723 720 718 716 713 710 709 707 706 706 706 704
862 864 858 839 832 837 841 841 840 840 844 845 847 853 857 858 859 860 859 857 862 869 870 865 848 827 817 815 817 820 820 822 825 825 825 824 824 824 822 820 818 816 814 812 810 808 804 801 799 797 795 792 789 786 783 781 777 774 772 769 766 764 761 759 756 752 746 742 739 737 734 731 727 724 721 718 716 713 710 708 706 704 703 703 702 701
867 864 862 853 843 838 840 847 848 843 843 845 847 852 861 864 865 870 866 856 860 867 870 875 859 828 816 816 815 819 822 823 825 826 826 825 824 823 820 819 818 816 814 812 810 807 803 801 798 796 794 791 787 784 781 779 776 772 770 766 764 762 759 757 754 749 744 739 736 734 731 729 726 722 719 716 713 711 708 705 703 701 700 699 698 697
876 872 869 860 848 844 848 852 851 848 845 847 850 851 856 862 866 874 873 863 867 868 864 870 861 828 812 814 816 821 823 824 826 827 827 827 824 822 820 819 817 816 814 812 810 807 803 800 798 795 793 789 786 783 780 777 774 771 767 764 762 760 758 755 751 746 742 738 734 732 729 727 723 720 717 714 711 708 705 703 700 699 697 695 694 692
878 871 866 854 841 844 854 855 852 853 852 852 855 854 858 864 864 867 871 873 878 874 866 871 861 827 809 814 819 823 825 825 827 827 829 828 824 822 821 818 817 816 814 812 809 806 802 799 797 794 792 788 784 781 778 775 772 769 765 763 761 758 755 752 748 744 740 736 733 730 727 724 721 717 714 711 708 705 703 700 698 695 693 692 690 689
873 860 858 857 849 847 851 853 853 853 852 852 858 861 862 867 869 867 870 878 879 867 863 872 860 825 811 816 820 825 827 827 828 828 830 829 826 823 821 818 817 815 813 810 807 803 801 798 796 793 791 787 784 780 777 773 770 766 763 760 758 755 752 749 746 742 738 734 731 728 725 722 718 715 711 708 705 702 700 697 694 692 690 688 686 684
876 861 860 863 863 862 860 857 853 850 848 848 856 866 867 870 873 868 868 877 875 861 860 870 858 829 816 818 822 826 828 827 829 830 829 829 827 824 821 818 816 814 812 808 805 802 800 796 794 792 789 786 783 780 776 772 768 764 761 758 756 753 750 746 743 739 736 733 730 727 723 719 716 712 709 706 703 699 697 694 691 688 686 684 682 680
878 866 862 860 859 860 860 856 851 850 853 851 851 860 868 871 870 868 871 872 866 864 864 862 854 839 826 823 825 827 828 830 831 831 829 828 827 824 822 819 817 814 812 808 805 803 798 795 792 790 787 785 782 779 775 770 767 763 759 756 753 750 747 744 741 738 734 732 729 725 721 717 714 711 707 704 701 698 695 692 689 685 683 681 679 677
877 869 865 862 859 857 857 856 852 853 855 850 846 852 863 872 871 869 872 865 862 873 869 852 849 848 835 828 828 828 830 833 832 831 830 827 825 824 823 820 817 815 812 809 806 803 799 795 792 789 787 784 780 777 773 770 766 762 759 755 751 748 745 742 739 736 733 731 727 723 719 716 713 709 706 703 700 696 693 690 687 683 680 678 676 674
880 873 869 867 864 861 861 858 854 853 851 846 844 846 853 866 871 869 868 864 867 876 866 849 849 849 838 832 831 830 833 835 833 832 831 828 826 825 823 820 817 814 812 809 806 802 799 796 792 789 787 783 779 776 772 768 765 761 758 754 750 746 743 740 737 734 731 729 726 722 718 715 711 708 704 701 698 695 692 688 685 682 679 676 674 672
881 872 869 871 870 866 862 854 848 848 846 843 844 844 847 859 868 867 865 864 865 866 859 852 852 847 839 836 834 834 836 836 835 834 832 830 828 825 822 819 816 814 812 809 806 802 799 795 792 790 786 782 779 775 771 767 764 760 757 752 748 745 742 739 735 732 729 726 724 721 717 714 710 706 703 700 696 693 690 687 684 680 677 675 672 670
879 871 868 872 874 866 853 846 845 845 847 849 849 847 849 856 862 864 864 864 864 862 857 855 855 847 840 838 838 839 839 837 836 834 832 830 827 824 821 819 817 815 813 810 807 803 799 795 791 788 785 781 778 774 770 766 763 760 756 751 748 744 740 737 734 730 727 724 721 719 716 712 709 705 702 699 695 692 688 685 682 679 676 673 670 667
880 877 872 874 878 866 848 844 847 846 849 856 856 853 853 856 860 865 866 865 866 864 859 859 858 849 840 840 842 841 839 838 836 834 832 829 826 824 823 821 819 817 813 810 807 804 800 796 791 787 783 780 777 773 769 765 762 758 754 750 747 743 739 736 732 728 725 722 719 716 713 710 707 704 701 697 694 691 687 683 680 677 673 670 667 665
884 884 878 876 877 864 849 849 852 850 851 854 856 855 855 858 863 866 866 864 863 863 864 862 855 846 842 844 844 840 839 839 837 835 834 829 826 825 825 823 820 817 813 809 806 803 800 796 791 787 783 779 776 772 769 765 761 757 753 750 746 742 738 735 731 728 724 720 718 714 711 708 705 702 699 695 693 689 685 682 678 675 671 668 665 662
886 887 880 877 878 868 856 854 855 851 850 853 857 859 860 863 869 869 868 865 861 860 860 856 849 847 848 848 846 842 840 839 838 837 835 830 828 826 824 822 819 815 811 808 803 800 797 793 790 786 782 779 775 772 768 765 760 756 752 748 745 741 738 734 731 727 723 719 716 713 710 707 703 700 697 693 690 687 683 680 676 673 669 666 662 659
883 883 878 876 880 871 859 863 867 857 851 857 863 863 863 865 868 868 866 863 860 858 856 854 852 852 851 849 848 845 842 840 839 836 833 830 828 826 822 819 816 813 809 806 802 798 795 791 787 784 781 777 774 770 767 763 759 755 751 747 743 740 736 733 730 726 722 718 715 712 709 705 702 698 695 691 688 684 681 678 674 670 667 664 660 657
883 882 878 874 874 868 866 877 878 860 852 863 867 864 865 867 868 870 866 859 858 858 857 857 856 853 851 850 848 846 843 840 837 834 832 830 827 825 821 817 814 812 809 805 802 798 794 791 787 783 779 776 773 770 766 762 758 754 749 746 743 738 735 732 728 725 721 717 714 711 708 704 700 697 693 690 686 682 679 675 671 668 665 661 658 654
882 881 879 875 871 870 876 882 874 857 854 866 870 868 870 871 871 875 871 859 855 856 858 858 856 852 851 849 847 845 842 838 835 832 830 829 826 824 821 817 814 811 807 804 800 797 795 791 787 783 779 775 772 769 765 761 757 753 748 745 742 738 734 731 727 723 720 716 713 710 707 703 699 695 691 688 684 680 677 673 670 666 663 659 655 652
882 879 880 880 873 871 878 882 877 866 858 864 871 869 869 870 870 873 873 862 854 855 856 856 855 852 850 848 846 843 841 838 835 830 827 827 826 823 820 817 813 810 806 802 798 794 792 789 786 782 778 774 770 767 764 760 756 752 748 744 740 737 733 729 726 722 719 715 712 708 705 702 698 694 690 686 682 679 675 671 668 664 661 658 654 650
883 878 879 883 878 876 880 885 885 875 862 863 870 867 867 870 868 869 872 862 853 854 855 854 854 852 849 848 845 842 842 842 836 829 826 826 824 821 819 815 812 808 804 801 797 793 789 786 783 779 776 772 768 765 762 758 754 750 746 742 739 736 732 728 724 721 718 714 711 707 704 700 696 693 689 684 680 677 673 669 665 661 658 656 652 648
886 883 880 882 880 876 877 881 883 876 866 866 869 867 868 867 864 870 872 858 848 853 855 854 854 852 849 847 845 843 844 842 835 828 826 825 822 820 818 814 811 807 802 799 795 792 788 784 780 776 773 770 767 764 761 757 753 749 745 741 738 734 731 727 724 720 717 713 709 705 702 698 695 691 687 683 678 674 670 667 663 659 656 653 649 645
880 882 880 879 880 879 881 883 878 869 865 867 868 867 867 863 864 873 870 855 848 853 854 854 854 852 848 847 846 844 843 840 835 829 826 824 822 818 816 814 810 806 802 798 794 790 786 783 779 776 772 769 766 762 759 756 752 748 744 741 737 733 730 727 723 720 716 711 707 703 700 697 693 689 684 681 676 671 667 664 660 656 653 649 645 642
879 881 877 876 880 881 880 880 875 867 864 867 866 863 865 869 872 870 860 852 853 854 853 854 854 851 849 847 845 843 840 836 834 829 825 824 821 817 814 811 807 804 800 796 792 788 784 780 777 774 771 768 765 762 758 755 750 746 743 739 736 732 729 726 722 718 714 710 706 702 698 694 691 686 682 678 673 669 663 659 656 653 650 646 642 639
882 882 876 875 879 878 875 878 880 873 864 862 863 863 866 871 870 862 855 855 857 855 854 854 853 851 849 846 843 841 838 834 832 829 825 823 820 816 812 809 806 802 797 793 790 787 783 779 776 773 769 766 764 760 757 753 749 745 742 738 734 731 728 724 721 717 713 709 704 700 696 692 687 683 679 674 671 666 661 656 652 649 646 643 640 635
882 883 880 879 881 882 882 881 877 867 858 859 863 864 864 864 862 859 859 859 857 856 856 854 851 850 849 845 842 839 836 834 831 828 825 822 818 815 811 807 805 800 795 792 788 785 782 779 774 770 767 765 762 759 756 753 748 744 740 737 733 730 726 723 720 716 712 707 702 698 693 689 684 680 676 672 668 664 658 654 650 646 643 640 637 634
879 881 883 883 881 881 880 874 864 859 858 861 863 863 862 861 860 860 861 859 858 858 857 854 851 849 847 845 841 838 835 833 830 827 823 820 817 814 810 806 803 799 795 791 788 784 782 778 773 769 766 763 761 758 755 752 748 743 739 735 732 728 725 721 718 714 709 705 700 696 691 686 682 678 673 669 666 661 657 652 648 644 640 637 634 631
879 880 884 885 881 877 874 866 861 862 863 863 864 863 862 861 860 861 861 860 858 857 856 854 851 848 846 844 841 837 835 833 829 826 822 818 815 812 808 804 801 797 794 790 786 783 780 776 772 769 764 761 759 757 753 751 747 742 738 734 731 728 725 721 716 712 707 703 698 694 689 684 679 675 671 667 663 659 656 651 647 642 638 634 632 629
882 885 885 884 884 882 875 864 862 866 867 865 864 862 861 861 861 861 861 859 857 855 854 853 851 847 845 843 840 837 835 832 828 824 819 816 813 809 806 802 798 795 792 789 786 783 779 774 771 767 764 760 757 755 752 749 746 742 738 734 730 727 724 720 715 710 706 701 697 692 688 682 677 672 668 664 660 656 653 650 646 642 637 633 629 626
884 888 887 884 884 882 874 865 865 868 867 865 863 861 861 862 860 860 860 858 856 854 853 851 850 846 843 841 839 836 833 830 827 822 817 814 812 808 804 800 796 793 791 788 786 782 779 775 771 767 764 760 756 754 751 748 745 741 737 733 730 726 723 719 714 710 705 701 696 691 686 681 676 671 667 663 658 654 650 647 643 639 635 632 628 624
886 887 885 883 883 879 872 868 869 868 864 862 863 862 862 862 860 859 858 856 854 853 851 850 848 845 842 839 837 834 831 828 825 821 816 813 810 806 802 798 795 792 790 786 784 781 778 775 770 767 763 759 756 753 750 747 744 740 736 732 729 726 722 717 713 709 704 700 695 690 685 680 676 671 667 662 657 652 648 645 643 638 632 628 625 623
887 887 885 886 888 885 878 875 876 875 868 862 862 863 862 862 860 858 856 855 854 852 851 849 846 844 841 839 836 833 830 827 824 821 817 812 808 804 801 797 794 791 788 785 782 780 777 774 770 766 762 759 756 752 749 746 743 739 735 732 729 725 721 716 712 708 703 699 694 689 685 680 675 671 667 662 657 651 644 639 638 636 632 626 621 620
891 891 890 892 893 888 882 878 878 878 872 865 863 863 862 861 860 858 856 854 853 851 850 848 845 842 840 838 835 833 830 826 824 821 816 810 807 803 800 797 793 790 786 784 781 778 775 773 769 765 761 758 754 751 748 745 741 737 734 731 728 724 720 716 712 708 703 698 694 689 685 681 676 672 667 662 658 653 646 638 631 629 628 625 621 619
Wind_Speed
4 6 5 4 4 6 5 5 4 4 5 5 5 5 5 6 5 9 10 2 2 3 5 7 6 4 7 7 7 6 5 4 4 4 3 2 2 3 3 3 4 4 5 8 11 14 15 17 20 22 22 24 27 29 31 32 31 32 32 32 32 30 29 30 26 21 20 19 18 19 20 20 20 22 25 26 26 25 27 28 27 25 25 26 26 24
6 7 5 5 5 5 4 3 3 3 4 5 5 4 5 5 6 12 10 2 2 2 5 8 8 6 6 7 7 6 5 5 4 4 3 3 2 3 3 3 3 3 5 8 11 14 17 19 22 23 25 28 30 32 33 32 31 33 33 31 30 29 29 32 28 21 21 22 20 20 21 23 24 24 23 24 26 27 28 30 31 31 29 30 32 27
6 6 5 5 4 4 4 4 4 4 5 5 5 3 4 5 7 10 5 2 2 1 5 9 7 6 4 6 6 6 5 3 3 3 3 3 2 3 3 3 3 4 5 7 9 14 18 20 23 25 29 32 32 32 34 33 32 32 32 30 30 29 29 32 30 22 21 26 27 25 23 23 24 26 25 24 26 28 28 28 28 31 31 31 30 25
4 3 5 4 3 4 4 2 5 6 4 3 2 3 4 6 7 6 5 7 7 6 9 9 6 6 1 4 5 5 4 4 4 3 3 2 1 1 2 2 3 5 6 6 8 12 17 21 25 29 31 34 35 32 29 31 33 31 31 31 31 30 29 30 31 27 25 29 31 28 23 22 24 27 28 27 27 27 27 27 26 28 31 31 26 21
3 1 4 4 4 4 4 2 7 6 4 1 3 4 5 9 8 8 9 10 10 9 7 4 5 4 4 5 5 4 4 4 4 4 4 3 3 2 1 2 3 4 5 7 9 11 16 23 27 31 34 33 33 30 28 30 31 30 30 31 31 30 29 29 30 31 29 28 28 27 24 25 25 26 27 27 26 27 27 27 27 27 28 31 29 25
3 1 2 5 4 4 4 3 5 4 5 2 1 5 9 12 12 12 11 8 6 5 1 2 3 3 4 6 6 6 4 5 5 4 5 3 1 1 2 4 4 5 6 8 10 12 18 23 28 33 36 32 28 28 30 30 30 30 31 31 31 31 30 29 29 30 28 24 24 24 24 23 23 24 25 26 28 29 28 28 30 28 26 28 31 30
1 0 2 5 5 4 3 3 3 3 4 4 3 8 12 13 13 13 10 5 3 5 3 3 2 4 2 3 4 8 5 5 5 4 4 2 1 3 4 4 5 7 8 9 11 15 19 23 28 32 33 29 27 29 32 31 31 32 32 32 32 32 30 29 29 28 26 24 24 25 26 26 25 25 26 29 30 31 30 30 31 30 26 25 28 29
2 2 4 6 4 4 5 3 3 3 1 4 5 10 13 14 14 13 8 4 4 7 6 2 1 4 4 3 5 8 6 6 6 5 4 2 4 5 4 5 6 8 9 10 12 15 20 26 30 30 28 28 31 32 32 32 33 33 34 34 34 33 31 29 29 29 28 27 28 29 29 29 28 28 29 31 31 31 30 30 30 30 27 26 27 28
1 3 4 6 4 4 3 4 3 2 1 5 6 9 12 14 15 13 7 5 4 5 4 1 3 4 5 3 5 6 4 5 4 3 3 3 4 4 5 6 7 9 10 11 13 15 21 27 31 30 29 30 32 32 32 32 33 32 33 34 33 32 30 28 29 30 31 32 32 33 32 31 29 29 29 30 30 30 29 29 30 30 28 26 26 27
1 3 3 2 3 2 4 5 3 2 4 6 8 10 11 12 13 9 5 4 3 2 3 3 6 4 6 6 2 2 1 2 1 2 3 4 5 5 5 6 8 9 9 11 15 19 24 27 29 30 30 31 31 31 32 32 31 31 32 33 33 32 31 31 32 32 32 32 32 32 31 30 29 28 29 30 30 30 29 28 29 29 27 25 25 27
2 2 1 1 1 2 5 6 4 5 6 5 7 9 9 9 8 3 4 3 1 3 3 6 11 7 6 4 2 1 1 2 1 3 3 4 4 5 4 5 7 8 9 12 15 20 25 27 28 30 29 29 29 30 30 30 29 30 31 31 33 35 34 33 33 31 30 31 30 30 30 30 29 29 29 30 30 29 29 28 28 27 26 25 25 28
1 0 0 0 1 3 4 5 2 5 5 3 4 7 7 6 5 1 0 1 2 4 4 9 12 8 5 2 2 1 4 4 2 1 3 4 4 5 5 6 7 8 11 14 13 16 21 24 26 27 27 27 29 29 29 28 28 30 31 31 33 33 33 33 33 32 33 34 33 32 32 32 32 32 31 30 29 28 28 27 26 26 25 25 25 26
1 1 0 1 2 2 3 4 2 1 3 3 3 6 7 5 4 3 3 2 3 4 3 9 11 7 3 1 1 3 4 4 3 3 4 3 5 7 8 8 8 9 12 12 13 14 16 19 23 24 25 27 29 29 28 28 28 29 30 32 32 31 34 37 37 36 37 36 35 34 34 35 34 32 31 31 30 28 26 26 26 25 24 24 24 24
1 1 1 1 2 2 3 3 2 2 4 4 4 4 4 4 5 5 4 3 5 7 6 8 8 5 4 2 2 3 4 5 5 6 3 4 8 9 9 10 10 10 11 11 13 14 14 19 23 23 24 26 28 29 29 27 27 28 31 31 31 32 36 38 37 38 37 36 34 33 34 35 32 30 30 30 31 30 28 28 28 26 25 24 24 24
2 2 2 1 1 3 3 2 0 2 3 3 2 4 2 3 2 3 3 3 7 9 10 8 4 2 5 2 3 3 4 5 4 3 5 10 11 11 11 11 11 11 12 12 14 16 17 23 25 24 24 25 26 29 29 27 27 30 31 30 30 32 34 34 35 37 38 37 37 36 36 35 34 33 33 32 32 31 30 30 29 27 25 24 24 24
3 3 1 1 2 2 2 2 1 1 2 3 2 4 1 2 1 3 5 5 7 9 8 5 3 2 3 1 2 2 4 4 6 8 12 13 12 12 11 11 12 12 12 13 16 16 19 25 25 24 24 24 27 29 28 28 29 30 30 30 31 32 31 31 35 39 40 41 41 40 39 38 37 37 36 35 34 32 31 31 29 26 25 24 24 24
3 3 3 1 3 2 1 1 1 1 1 2 3 2 4 4 3 2 6 5 6 7 5 4 5 5 5 2 3 3 6 10 10 11 14 15 15 13 12 13 14 14 13 14 16 17 20 24 24 24 25 26 28 29 29 30 31 31 30 30 32 32 29 30 36 40 42 43 44 43 40 39 38 37 36 35 35 34 33 33 30 27 25 25 26 27
0 5 5 3 0 1 2 2 1 1 2 1 0 2 5 3 2 1 4 4 4 6 5 6 8 7 7 4 2 4 11 11 11 14 17 17 15 14 13 15 16 15 14 16 17 18 21 23 24 26 27 28 30 31 32 32 31 31 29 29 31 30 27 31 39 41 41 42 43 41 38 36 36 36 35 34 34 34 32 32 30 26 24 25 27 30
1 3 4 2 2 1 2 1 1 3 4 2 4 1 1 1 1 2 2 3 5 6 6 10 11 7 6 4 4 10 11 11 15 18 18 18 16 14 15 17 18 17 15 16 16 17 20 23 25 27 28 29 32 34 35 34 32 31 30 30 30 28 29 36 41 41 40 41 38 33 34 35 34 33 32 31 32 33 32 30 29 26 26 27 29 31
1 1 3 2 1 2 2 0 1 1 3 3 4 1 2 1 2 2 1 1 3 5 7 11 12 6 3 4 8 9 10 13 17 17 16 16 15 15 17 16 16 16 14 15 16 17 19 24 26 27 30 32 34 35 34 34 33 31 32 32 29 28 32 37 40 41 41 38 32 30 33 34 33 31 29 29 30 31 32 31 29 28 28 30 31 31
2 2 4 4 5 2 1 1 1 2 1 1 1 1 2 1 1 2 2 1 1 3 5 10 12 6 2 5 7 8 11 14 16 16 15 14 16 17 18 16 16 15 16 17 17 17 20 25 27 28 33 35 35 35 33 33 32 32 32 31 28 29 33 37 41 43 39 33 28 29 31 32 33 32 29 29 30 31 32 31 29 27 28 29 31 31
2 3 4 4 6 4 1 0 3 1 3 2 1 1 2 1 1 2 3 1 2 1 3 7 12 10 5 3 4 8 12 14 15 16 14 15 19 20 17 17 17 16 17 19 19 18 20 24 27 30 34 35 35 34 33 32 32 33 32 29 28 30 32 36 40 40 35 31 28 27 29 33 35 33 30 30 31 31 32 30 28 27 28 30 32 31
2 2 3 5 5 2 2 1 3 3 4 4 2 2 2 2 1 0 4 2 1 3 4 6 11 12 5 2 6 10 12 14 15 13 13 17 20 19 19 19 18 18 19 19 19 19 22 26 28 31 33 34 34 33 32 32 32 34 32 28 27 29 33 38 38 35 33 32 28 27 30 34 35 33 32 33 33 32 31 30 29 29 30 30 30 29
1 2 3 5 4 0 2 2 3 4 4 3 1 1 2 2 2 3 3 2 2 3 5 6 10 11 5 5 8 11 14 16 14 12 16 19 18 18 20 19 17 18 19 19 19 20 24 27 28 29 30 31 32 32 32 33 33 33 31 27 26 29 34 38 36 34 33 29 27 29 32 34 34 33 32 32 32 32 32 33 32 32 31 30 30 30
1 1 3 5 4 3 3 3 3 2 2 0 2 1 2 2 2 3 2 1 1 4 4 6 11 11 9 10 12 13 15 16 13 13 18 18 17 18 19 18 17 18 19 20 19 19 22 24 25 27 28 29 30 32 33 34 33 32 30 27 27 31 36 37 34 33 31 27 29 33 34 33 32 31 31 30 31 31 32 33 33 32 30 29 31 30
1 2 3 3 3 4 5 5 5 5 4 2 2 4 3 4 4 2 2 2 3 6 6 7 11 15 17 19 18 17 17 15 15 18 19 17 17 18 18 17 18 18 19 20 20 20 20 21 24 28 30 30 31 33 34 34 34 34 29 26 28 33 37 35 31 30 28 28 32 34 33 31 30 30 30 29 29 30 31 33 33 32 30 29 29 28
1 3 3 3 4 4 5 8 9 7 6 7 5 4 6 5 3 1 0 3 5 8 9 9 11 18 23 22 20 19 17 15 16 20 20 17 18 19 18 19 19 19 19 19 19 20 21 22 24 29 31 33 34 34 34 34 34 32 29 28 32 35 36 33 30 29 28 30 33 32 30 30 30 30 30 29 29 30 30 32 33 31 30 28 27 26
1 3 2 2 4 6 8 12 13 10 8 11 10 4 5 6 4 4 3 5 5 6 9 11 13 19 22 22 23 19 15 16 19 20 19 19 19 19 19 21 21 20 19 20 21 22 22 22 23 27 33 35 35 36 36 35 34 31 31 33 36 37 36 33 31 30 29 31 32 31 29 30 30 30 30 29 30 31 31 30 30 30 28 27 26 25
0 3 1 1 5 9 12 14 13 9 9 10 10 8 4 6 7 5 6 7 4 5 11 17 20 21 21 21 21 17 16 18 20 19 19 20 20 20 21 21 20 20 21 23 23 23 23 22 21 26 33 35 35 38 37 35 33 33 33 35 37 37 36 34 32 31 31 31 31 30 30 30 30 30 29 29 30 31 31 30 30 30 29 28 27 27
1 2 2 1 6 10 13 13 9 7 9 9 9 8 4 5 8 7 8 8 7 10 14 19 23 22 19 17 16 16 17 18 17 18 19 21 22 22 21 20 20 22 23 23 24 23 23 23 24 28 33 35 36 38 36 33 33 34 36 38 38 36 35 34 33 33 32 31 30 30 30 30 30 29 29 29 29 30 30 29 29 31 30 29 29 28
1 1 1 1 4 9 10 8 6 7 8 8 10 7 3 4 6 5 5 6 8 12 16 19 20 18 12 11 13 16 17 16 17 20 20 20 22 22 21 22 23 23 23 23 23 23 23 24 26 29 32 35 38 38 35 32 33 36 38 38 37 36 35 35 34 33 32 31 31 31 30 29 29 29 29 29 30 30 30 29 29 30 30 29 28 28
1 1 2 1 3 7 6 6 10 12 7 5 8 7 4 4 3 2 3 5 8 14 19 18 14 12 9 10 14 16 17 19 20 21 21 20 20 20 20 22 23 23 23 22 21 23 24 24 25 28 31 35 38 38 36 33 33 37 39 37 36 37 37 35 34 33 32 32 31 31 30 29 29 29 29 29 29 30 30 29 29 30 29 28 28 29
1 1 2 2 2 6 6 8 11 12 7 4 5 3 2 1 4 4 5 9 12 13 13 12 11 10 11 13 16 18 19 20 20 18 19 20 19 18 19 21 22 22 22 22 22 22 23 23 26 30 33 35 37 37 37 35 35 37 38 37 37 37 36 34 33 32 32 32 31 31 30 30 30 30 30 30 30 31 30 29 29 29 29 28 29 30
2 1 2 1 1 5 9 10 9 8 5 3 1 3 3 3 5 7 9 12 15 13 10 12 12 12 13 14 17 20 20 19 19 18 18 17 15 17 19 20 21 21 21 22 22 22 23 26 30 34 35 36 37 37 37 37 37 38 38 38 37 35 34 33 32 32 32 32 31 30 30 30 30 30 31 31 31 31 30 29 29 30 30 29 28 29
1 3 3 1 1 5 7 7 8 7 4 1 3 4 3 1 3 9 12 12 13 14 13 13 12 12 14 15 16 18 18 18 19 18 16 14 15 17 20 20 20 21 21 21 21 22 26 30 33 34 36 36 35 36 37 39 39 39 37 36 36 35 32 32 31 31 30 30 30 30 30 30 31 31 32 32 32 31 31 30 29 29 29 29 27 27
1 3 3 2 2 3 4 4 5 7 2 4 3 3 2 2 5 10 14 12 11 11 9 10 12 13 15 16 15 15 17 17 16 13 12 14 16 18 19 19 19 20 20 22 23 25 29 33 34 35 36 36 35 35 37 39 40 39 36 35 35 33 32 31 31 29 29 29 30 30 30 31 31 31 32 32 32 32 31 31 30 30 30 29 27 26
2 3 2 2 1 1 3 4 6 8 3 3 1 2 3 3 6 8 12 12 8 5 6 9 13 15 15 16 16 15 16 16 13 10 10 14 17 18 19 21 22 22 24 29 32 31 32 34 35 36 37 37 36 37 38 40 40 38 36 35 34 33 31 31 30 29 29 30 30 30 31 31 31 31 32 32 32 31 32 31 31 31 30 27 26 26
3 3 0 1 1 0 3 4 5 8 5 2 2 2 4 3 4 6 11 10 3 5 8 11 14 17 17 17 17 17 15 13 11 10 11 15 17 18 20 24 27 29 30 33 36 35 36 36 35 36 38 37 37 37 38 39 39 37 35 34 33 32 31 29 29 29 30 30 31 32 32 31 30 31 32 33 32 32 32 31 31 31 29 27 26 27
5 4 1 1 3 2 3 4 4 6 5 1 2 3 3 2 4 6 8 6 3 8 11 12 14 17 18 17 18 16 12 10 10 11 13 16 18 18 19 22 27 32 34 35 36 36 37 37 36 37 37 37 36 37 38 38 38 36 34 32 32 31 29 29 30 30 31 32 33 33 32 31 31 32 33 33 33 34 33 32 31 30 29 27 26 27
4 3 1 2 4 3 3 4 3 4 3 1 3 5 4 4 6 8 9 7 6 11 12 12 15 18 17 16 15 12 10 11 12 14 16 19 20 22 22 22 26 31 34 35 37 37 37 36 36 36 37 37 37 37 38 37 36 34 33 32 30 29 29 30 31 31 32 33 33 33 32 31 32 33 34 33 34 35 34 31 30 30 30 29 28 29
2 2 2 3 4 4 4 3 3 4 2 1 1 3 5 7 7 8 10 10 11 13 12 12 15 17 16 15 13 10 11 13 14 17 19 19 20 22 25 28 30 32 34 35 38 38 36 35 35 36 37 36 36 37 37 35 33 33 32 30 28 29 30 31 32 32 33 33 32 32 32 32 33 34 35 35 35 35 34 32 31 31 32 31 30 30
1 1 2 2 2 2 3 3 5 4 2 3 3 2 1 5 8 8 9 10 12 14 13 13 14 15 15 15 13 12 14 16 17 18 18 18 18 20 24 29 31 32 35 36 37 37 35 33 35 37 38 37 37 37 36 35 33 32 30 28 29 31 32 32 32 32 32 32 32 32 33 34 35 35 36 36 34 33 34 34 32 31 31 30 30 30
0 1 2 2 1 1 2 2 3 5 2 1 5 5 2 2 7 8 9 10 11 12 13 12 12 13 13 14 14 15 17 19 19 18 17 17 18 20 25 29 30 32 35 35 36 37 35 33 35 37 38 37 37 36 36 34 32 31 29 29 31 33 32 30 32 33 33 33 33 34 35 37 37 37 36 35 33 32 33 33 32 31 30 28 28 27
1 1 2 2 1 1 2 1 2 6 6 4 5 5 4 5 6 6 7 9 9 9 10 10 11 12 13 14 16 17 18 18 17 17 18 17 17 20 24 28 31 34 35 34 35 36 35 34 35 37 37 37 37 38 36 33 31 31 30 31 33 33 30 31 33 34 33 33 33 35 37 37 37 36 35 34 33 31 31 32 31 30 29 27 24 22
1 2 0 2 1 2 3 5 6 8 7 5 4 5 7 8 7 6 7 8 8 8 8 9 11 14 14 16 17 17 17 17 17 18 18 17 17 18 23 28 32 33 33 34 36 36 36 36 36 36 36 36 37 37 36 34 32 31 31 33 33 32 31 34 36 34 33 33 33 35 37 37 36 36 34 33 31 29 29 30 29 27 27 26 23 20
1 3 3 1 3 3 4 8 8 7 6 6 6 6 7 7 5 6 7 9 9 9 8 9 12 15 15 15 16 15 16 17 17 18 17 16 17 20 25 29 31 32 33 33 35 37 39 37 35 33 35 36 37 36 36 34 32 31 33 34 32 31 33 37 36 34 32 33 34 35 36 36 36 34 33 32 30 28 27 27 26 25 25 24 21 20
2 3 2 1 3 4 5 7 6 6 7 9 10 8 6 6 5 6 7 9 10 11 10 10 13 15 15 15 14 15 17 17 17 17 17 15 15 20 25 27 28 31 33 34 34 38 39 35 32 32 33 35 36 37 37 35 32 31 34 33 31 33 36 36 34 33 33 33 34 35 35 35 34 33 32 32 31 29 27 26 25 23 23 23 22 20
1 1 1 2 2 4 8 9 8 9 10 11 10 7 6 7 8 8 9 11 12 13 13 15 16 15 14 14 14 15 16 17 17 17 16 15 16 20 25 27 29 31 34 35 36 38 37 33 31 31 32 33 35 37 38 35 32 33 34 32 31 34 36 35 34 33 33 33 33 34 33 32 32 31 31 32 32 30 28 27 26 25 24 24 23 22
0 0 1 3 3 6 9 9 11 14 15 12 10 8 8 9 10 11 12 13 13 12 13 16 19 18 17 17 16 15 16 16 17 19 18 16 16 21 27 30 32 33 35 35 36 36 34 32 31 31 32 33 35 37 36 33 33 35 33 31 33 36 35 34 34 32 32 33 32 32 32 31 31 31 31 31 31 31 30 28 27 26 28 30 28 22
1 3 3 3 4 6 8 9 11 12 12 12 13 12 10 10 11 12 13 12 12 13 13 15 19 21 23 23 22 18 15 16 19 22 21 18 21 26 30 31 33 34 36 36 35 34 32 32 32 32 32 34 35 35 34 33 35 36 32 30 34 37 35 33 32 31 32 32 30 30 30 30 31 32 31 30 29 31 33 33 30 25 25 29 28 20
2 3 4 3 5 7 10 11 10 9 10 13 14 13 13 13 12 12 13 13 13 15 15 15 16 18 20 23 26 23 17 18 23 24 22 23 29 32 32 33 34 34 35 35 33 32 32 33 33 33 34 34 35 34 32 33 36 35 31 30 35 37 34 31 31 30 31 31 29 29 30 30 30 30 30 30 29 28 29 33 36 36 29 22 19 15
Wind_Direction
36 62 44 25 10 357 11 15 360 327 305 299 292 288 299 307 303 307 312 316 65 351 286 295 296 207 174 183 175 164 172 170 174 169 141 111 82 65 45 35 17 12 360 352 353 353 352 349 345 340 337 333 329 326 328 328 328 329 325 319 315 315 317 313 304 300 305 302 301 304 301 299 301 305 307 305 303 302 301 301 300 293 281 274 272 269
47 61 45 14 7 349 340 320 310 289 279 280 275 292 312 315 309 304 305 304 78 45 281 292 286 236 191 180 168 158 177 180 169 156 126 94 71 54 38 23 6 3 351 347 348 346 346 343 340 338 336 332 329 327 327 327 329 330 325 321 318 317 318 314 306 301 307 306 300 296 294 297 301 300 297 297 298 299 299 298 297 295 289 281 272 265
56 52 21 7 359 329 291 264 290 284 250 255 274 312 314 323 320 299 301 347 9 91 273 288 288 264 199 164 168 170 179 156 112 106 92 75 50 29 16 5 351 350 351 345 342 343 342 340 337 336 334 331 327 327 329 329 330 331 326 323 321 319 318 316 311 306 309 309 301 290 287 295 302 302 299 295 293 295 295 294 293 291 289 283 271 260
61 44 9 347 308 308 291 287 356 330 266 241 321 358 311 327 336 299 313 329 308 281 271 278 291 286 194 149 176 174 157 125 120 119 105 111 116 61 338 325 352 348 342 341 341 343 343 340 337 333 332 330 327 326 332 333 331 329 326 323 322 320 318 316 315 314 312 310 305 297 297 305 306 303 302 298 294 293 293 292 292 291 291 289 280 270
74 45 348 309 262 276 286 9 31 355 325 18 43 20 320 322 320 287 299 316 305 288 265 259 292 274 185 189 197 153 132 135 151 167 163 176 168 150 284 323 7 348 338 348 345 343 344 340 336 332 329 327 327 328 333 332 327 324 323 321 319 317 317 315 314 314 312 310 308 308 312 314 310 305 304 301 298 297 295 291 290 288 289 291 290 290
76 139 290 306 279 284 300 30 43 360 333 336 40 3 329 316 310 293 300 317 310 299 241 134 305 272 188 208 188 142 155 169 172 192 183 179 166 94 1 356 4 353 351 353 345 342 341 336 334 331 326 324 327 330 331 328 324 323 322 321 320 318 318 317 316 316 316 317 318 319 319 314 309 305 303 301 299 298 297 295 293 287 283 286 288 289
30 157 284 313 295 317 3 57 55 34 347 300 313 345 322 307 303 294 301 313 287 293 271 162 254 277 274 272 154 148 174 174 173 202 193 159 61 29 16 3 1 359 352 348 344 341 336 333 333 329 326 329 332 332 331 329 328 328 327 326 324 323 322 323 322 322 325 326 324 319 315 309 304 300 299 299 300 298 297 298 296 290 285 285 283 282
340 14 356 340 332 11 21 16 30 65 29 282 317 333 312 303 299 289 293 281 250 290 282 189 286 293 298 341 116 146 173 168 178 202 183 111 44 19 9 8 4 357 352 350 344 335 332 335 332 326 328 335 335 333 334 333 333 332 330 329 327 326 326 326 326 325 326 324 319 315 311 305 300 298 300 300 300 298 297 296 295 292 289 286 281 276
336 22 12 345 350 25 359 318 334 67 195 262 300 316 300 294 287 279 279 264 258 304 296 302 352 313 297 330 118 146 185 173 175 175 125 56 29 11 4 9 1 355 355 350 338 332 337 338 332 327 332 335 334 334 335 334 333 331 330 328 326 325 325 325 324 321 317 314 313 312 308 303 302 303 304 303 300 298 296 293 292 291 291 290 286 280
91 36 25 348 357 357 309 301 302 187 213 265 295 303 295 287 279 266 245 249 275 284 255 354 12 351 305 305 126 129 262 144 87 56 65 28 13 4 3 5 355 354 353 344 337 337 338 334 329 328 330 331 332 333 332 331 332 332 331 328 325 323 322 321 319 316 312 312 312 310 307 305 305 307 306 304 301 298 294 290 289 289 290 290 288 286
73 51 51 58 14 286 273 282 262 218 239 286 312 309 303 296 287 252 193 214 257 252 266 9 12 349 305 310 69 83 191 152 40 7 8 359 354 341 346 1 353 350 346 341 340 338 334 329 326 324 324 328 332 331 329 330 333 332 328 325 322 319 317 316 316 315 314 313 311 307 305 303 301 300 300 298 296 295 292 287 285 287 289 288 286 284
45 56 59 25 283 267 277 288 242 223 257 303 329 324 328 314 304 334 197 239 243 270 329 4 353 325 288 289 70 144 186 168 129 5 303 311 327 327 341 357 351 350 347 342 341 335 329 327 325 323 326 332 333 330 328 330 331 327 323 320 318 316 317 319 318 316 314 311 308 303 301 298 294 293 293 290 288 289 289 286 285 284 284 283 281 279
246 233 200 233 261 301 322 324 345 272 303 338 343 344 349 338 341 346 331 324 277 271 340 355 335 311 270 242 136 153 168 164 162 205 245 293 337 345 356 353 345 345 343 341 338 332 328 327 324 326 334 337 332 328 327 328 326 322 321 321 319 320 324 323 317 313 308 305 302 301 299 296 292 288 288 288 285 284 283 283 284 283 280 279 279 279
312 258 246 258 291 315 339 347 344 327 337 350 6 16 358 342 347 321 307 325 297 288 321 332 316 297 297 286 154 139 163 171 183 213 253 355 354 353 353 343 335 333 336 341 337 332 330 327 326 331 337 334 328 325 324 324 324 324 324 323 323 324 323 320 316 314 311 307 306 306 304 300 296 292 290 288 284 281 281 282 282 280 277 276 276 276
313 295 285 322 297 293 349 53 232 288 306 316 26 77 37 332 320 289 295 319 302 299 311 310 288 311 320 274 155 158 199 191 199 244 353 5 355 350 343 335 331 330 339 344 336 332 329 325 326 329 331 329 325 322 321 323 326 327 324 322 322 321 320 321 323 324 322 318 315 314 311 308 307 304 300 296 289 282 281 283 282 280 278 276 275 275
304 282 217 20 346 321 30 75 213 294 274 282 21 86 42 297 223 257 274 283 293 294 299 297 266 315 328 233 149 205 247 305 334 346 358 354 346 343 336 335 335 334 341 343 337 332 326 323 323 324 327 329 324 319 320 326 328 326 322 322 320 318 318 324 328 328 324 318 314 311 310 308 307 305 303 302 298 293 290 288 286 284 286 286 284 281
322 284 202 100 360 9 36 317 287 38 236 287 2 23 278 256 180 243 280 283 295 289 292 309 292 308 330 311 183 227 303 333 341 347 348 341 341 344 340 340 337 335 341 340 334 327 322 322 323 323 327 328 323 319 323 327 327 324 321 320 319 317 319 326 329 325 320 316 313 309 307 303 299 299 298 297 296 295 293 291 288 287 288 290 290 288
93 290 262 207 204 284 288 319 13 349 296 251 38 299 293 283 161 178 287 299 305 288 288 300 296 310 320 300 215 308 327 339 344 344 340 337 343 344 339 338 334 335 338 334 329 323 321 323 324 325 327 326 324 324 326 327 326 323 320 319 318 318 320 326 326 321 316 313 310 307 306 302 297 295 294 293 293 290 290 289 286 286 287 289 289 287
147 293 284 215 150 188 250 334 23 325 335 118 154 202 342 345 309 314 309 299 296 294 294 297 300 300 284 284 326 327 333 349 347 342 338 336 341 339 336 336 334 335 334 329 328 326 324 325 326 327 328 328 329 328 326 327 326 323 320 318 316 316 319 323 323 318 313 309 306 306 310 308 304 300 296 295 296 291 287 285 284 286 290 291 289 285
298 267 275 285 5 117 173 225 178 264 349 92 141 107 79 170 258 281 278 265 278 290 301 306 305 293 258 307 329 331 345 355 346 339 335 335 340 338 335 334 333 333 331 329 330 328 327 328 329 332 333 331 330 328 326 326 325 323 320 318 316 318 322 322 320 317 312 306 305 309 312 310 309 310 308 306 305 300 291 284 282 285 289 288 286 283
309 252 264 303 337 340 207 303 283 187 112 102 200 18 40 310 269 248 240 181 234 285 308 310 301 290 304 317 326 345 352 351 344 337 333 335 338 334 332 332 333 332 332 332 331 327 328 329 331 335 335 331 328 326 326 325 324 322 320 319 319 321 324 323 320 318 312 306 307 310 312 313 313 312 311 311 309 307 301 293 287 286 285 284 284 282
323 271 280 302 308 302 204 33 340 3 108 101 259 149 139 217 321 314 285 153 112 275 293 297 291 292 304 310 343 357 347 343 342 337 335 337 333 330 332 334 335 335 334 332 329 327 328 329 333 335 333 329 326 325 325 324 324 323 320 317 318 321 325 325 322 318 314 309 308 310 314 317 315 311 311 313 311 307 304 299 293 290 286 283 282 280
349 272 277 279 268 294 54 30 2 41 80 93 110 123 135 169 141 225 278 293 355 287 281 277 278 285 302 11 360 350 340 337 339 339 340 337 331 331 334 335 336 334 332 330 328 327 328 330 331 332 331 328 326 324 325 325 325 323 319 316 319 323 324 324 321 318 314 310 310 314 318 317 314 311 310 310 309 307 304 301 296 292 288 283 281 278
345 232 266 277 258 160 33 342 357 34 56 85 140 133 120 159 192 209 237 308 338 277 285 286 275 281 311 354 342 337 335 333 335 343 343 336 332 333 334 334 335 333 330 328 325 326 329 329 330 331 331 328 325 325 327 326 324 324 321 318 321 323 323 324 323 317 312 310 316 321 318 315 312 308 305 304 304 304 304 301 297 292 289 286 285 282
323 267 310 316 313 330 338 333 335 337 350 146 176 134 115 150 215 251 237 132 269 258 277 290 282 286 304 316 321 330 331 329 333 345 342 334 331 332 331 332 333 332 328 325 326 330 331 330 330 331 330 328 327 327 327 326 324 323 320 317 320 323 324 324 321 314 312 316 322 320 315 312 310 307 304 303 302 302 303 302 298 293 290 289 286 282
266 270 304 309 306 315 311 305 304 308 315 306 168 149 154 168 178 241 270 235 270 289 292 277 277 290 301 308 318 328 329 331 341 343 337 332 332 332 332 333 332 330 327 325 330 334 331 329 330 331 330 330 330 328 326 326 327 324 319 317 322 326 326 325 319 314 316 322 322 317 313 312 312 311 310 309 308 307 308 309 306 300 295 293 290 284
266 274 279 261 242 247 269 279 291 305 300 287 266 192 176 184 176 126 209 256 286 306 294 268 269 290 301 308 318 326 331 337 342 338 334 333 335 334 333 332 330 329 328 329 334 334 330 329 330 331 332 332 330 327 326 328 328 325 321 320 323 325 325 324 320 318 321 323 319 315 313 314 314 314 313 313 314 313 313 313 312 307 302 300 298 292
320 276 275 300 265 260 276 282 287 293 278 277 285 258 182 176 163 141 197 262 302 310 287 285 292 296 301 310 317 324 336 341 338 336 334 333 334 335 333 330 328 330 333 334 334 332 330 330 330 331 333 331 328 327 328 329 329 326 323 322 324 325 325 323 319 320 322 321 317 315 315 316 315 313 312 313 315 315 314 313 314 314 312 310 307 302
6 259 231 3 285 282 289 285 278 274 266 271 282 280 239 179 164 182 233 258 283 273 280 298 304 300 302 310 316 328 342 340 335 335 334 332 332 334 332 329 331 335 337 336 333 332 331 329 330 332 330 328 327 329 330 331 329 328 325 324 324 325 325 323 320 320 321 319 317 316 316 316 315 312 312 315 317 316 314 313 314 316 315 312 308 304
171 248 232 234 274 285 285 277 268 272 278 281 283 283 269 180 176 208 248 262 269 269 279 296 299 298 302 310 320 336 341 335 330 331 332 332 332 333 333 333 336 338 337 336 333 332 331 330 330 330 328 328 329 330 331 331 330 329 327 326 325 324 324 323 321 320 319 317 317 316 316 315 314 312 313 315 316 315 313 312 313 314 312 309 304 299
168 310 317 202 283 292 283 275 288 298 294 293 292 287 256 214 210 224 271 296 299 293 294 299 298 296 302 319 330 334 332 328 329 333 333 332 332 334 337 338 339 338 335 334 332 331 331 330 329 328 327 329 331 331 330 331 331 329 327 326 325 324 324 323 320 319 318 317 317 316 315 315 314 313 314 314 314 313 311 310 311 310 308 305 302 297
170 291 313 38 302 291 297 324 321 309 297 279 282 274 235 239 259 272 293 301 303 303 304 305 300 298 314 335 332 327 328 330 334 336 334 331 332 336 340 339 337 334 331 331 331 331 331 329 328 328 328 329 330 330 330 332 331 329 327 326 325 323 323 322 320 319 318 317 317 316 315 315 314 314 314 313 313 312 310 309 310 310 307 303 301 299
93 287 299 360 308 285 310 330 314 305 302 281 274 262 210 283 331 322 308 306 305 305 306 302 300 311 330 337 329 327 332 333 334 337 332 329 333 337 338 336 333 332 330 330 331 331 330 328 327 327 328 329 329 329 331 332 330 328 326 325 324 323 322 321 321 320 318 317 316 316 316 316 315 315 314 313 312 311 309 309 309 310 309 304 301 300
127 204 259 16 313 286 307 319 314 309 308 288 287 69 64 33 347 318 306 305 304 303 298 296 303 321 332 333 328 328 331 330 330 330 325 325 333 336 334 333 331 331 330 330 330 330 329 328 327 327 328 328 329 330 331 330 328 326 324 323 323 323 322 321 320 319 317 316 316 316 317 317 316 315 314 313 312 311 310 309 308 308 307 305 303 301
258 270 267 175 194 271 306 337 334 324 324 151 105 65 46 51 345 313 299 293 298 302 302 303 312 325 328 327 327 324 323 323 323 321 319 328 337 334 330 332 332 332 331 331 330 329 328 328 328 328 328 327 329 331 331 329 327 325 324 324 324 322 322 321 320 319 317 316 316 317 318 318 316 315 313 312 312 312 310 309 308 306 306 304 300 298
260 284 276 251 247 290 334 3 317 302 317 123 111 50 19 335 347 329 312 304 305 309 315 319 320 323 323 322 322 320 318 318 316 313 320 333 337 333 331 331 332 332 330 328 327 327 329 329 328 327 326 327 329 332 330 328 327 325 324 325 324 322 322 322 320 319 318 317 317 318 318 317 315 313 313 313 312 311 310 309 309 307 306 303 298 295
257 285 312 316 241 280 319 303 284 291 292 143 143 30 37 353 344 330 311 306 309 323 343 333 320 319 321 319 320 321 319 317 312 311 327 334 332 331 330 328 328 329 328 326 325 326 328 328 327 326 326 327 329 331 330 327 326 326 325 325 324 323 322 321 319 320 319 318 318 318 318 316 314 312 312 312 310 309 309 309 309 307 306 303 299 296
276 262 53 14 236 262 316 302 304 311 312 136 124 42 51 8 330 313 301 301 331 18 353 334 322 321 322 321 322 323 321 316 311 315 329 332 328 327 326 324 325 326 326 327 328 328 329 328 328 328 327 327 329 329 328 326 326 326 325 324 324 323 322 320 320 321 320 319 319 318 317 315 313 311 311 310 308 307 308 308 307 304 304 303 300 298
279 264 153 178 264 305 320 295 297 306 306 96 73 6 19 334 308 311 299 292 10 9 344 333 325 322 322 321 321 323 322 315 312 319 328 328 325 324 324 323 323 323 324 327 328 328 328 328 328 328 328 329 329 329 327 327 327 326 325 324 324 323 321 322 322 322 322 320 319 317 315 314 312 311 309 307 306 306 306 305 303 301 301 301 299 298
260 274 221 222 261 275 282 278 271 268 271 60 20 339 330 307 308 316 306 305 349 349 337 330 324 320 320 320 320 321 320 315 314 318 322 323 322 321 321 322 323 323 324 326 326 326 327 328 328 328 329 330 330 328 328 328 327 326 325 324 323 323 323 324 324 323 321 318 316 315 314 313 312 310 309 307 306 306 305 303 300 299 299 298 297 297
234 241 220 222 256 273 279 277 273 269 267 61 346 302 308 312 313 311 306 316 335 333 328 328 322 317 318 319 318 317 314 313 314 314 317 320 319 319 320 321 322 323 324 324 324 325 326 327 328 328 328 328 328 328 328 328 326 325 325 324 323 324 324 325 324 323 320 317 316 315 314 313 312 311 310 308 306 305 303 301 299 298 298 297 296 295
325 276 250 239 250 259 259 268 294 293 223 189 262 283 359 332 316 306 308 321 327 324 324 325 317 315 317 316 313 312 312 314 314 314 317 319 318 317 319 321 322 323 324 324 324 325 325 326 328 328 327 327 328 328 329 328 325 324 324 323 323 325 324 324 324 322 320 318 317 316 315 314 313 311 310 309 307 304 302 301 301 299 297 296 296 295
342 319 295 277 253 301 296 284 315 310 254 231 319 333 59 335 306 305 312 319 320 318 319 317 312 314 315 312 312 314 314 316 316 316 317 317 316 316 319 322 323 322 323 324 325 326 327 327 328 327 326 326 328 328 329 329 325 323 322 322 324 325 324 324 325 324 321 318 316 315 315 314 313 313 312 309 307 305 302 302 303 302 299 299 298 296
173 169 287 294 107 50 323 267 270 295 305 351 349 326 315 311 310 315 317 314 315 318 317 312 310 313 314 313 314 316 316 317 317 316 316 316 316 317 318 321 323 321 321 324 325 328 329 328 326 325 325 326 328 329 329 329 326 323 323 324 325 325 325 327 327 323 319 317 316 315 315 315 315 314 312 310 309 306 304 304 305 304 302 302 299 296
196 152 193 291 228 188 243 254 270 291 314 2 3 316 314 318 321 331 325 315 313 316 316 312 309 313 316 315 315 316 318 319 317 316 315 315 315 317 317 318 320 321 323 324 326 329 330 326 324 324 324 326 329 330 330 329 327 324 325 327 327 327 330 330 327 321 318 317 316 316 316 316 315 315 314 312 311 309 306 307 307 306 305 304 302 299
79 66 71 346 295 287 255 262 283 309 334 346 331 314 315 319 328 340 327 314 312 312 312 311 310 313 316 314 313 315 317 317 315 313 313 312 313 316 317 317 318 321 325 327 328 329 329 325 324 325 325 327 331 332 332 330 328 326 326 326 328 331 333 329 324 320 320 318 317 318 318 317 316 316 316 315 314 311 308 306 306 305 305 304 303 300
65 48 60 250 311 327 293 283 313 346 342 327 317 312 315 319 329 335 321 311 310 309 310 312 312 312 313 312 313 315 315 315 313 311 311 313 314 316 317 317 318 322 327 329 329 329 328 326 325 326 325 327 330 333 332 330 328 328 326 325 329 333 332 327 323 322 321 319 319 320 319 317 316 317 318 318 317 315 312 309 307 304 302 303 303 301
65 62 279 264 275 280 280 296 331 337 319 313 312 313 322 324 324 325 318 310 309 309 313 316 315 313 313 313 314 313 312 312 312 311 312 314 315 317 318 318 320 324 327 328 328 329 328 326 325 326 326 327 329 330 330 329 329 328 327 327 332 333 330 326 325 323 321 320 321 320 319 317 317 317 319 320 318 316 314 313 312 308 303 301 299 297
102 107 278 287 284 275 284 313 338 328 315 314 318 319 323 323 321 320 315 310 310 312 315 316 314 312 312 313 313 312 311 311 314 316 316 315 315 317 319 320 323 326 327 327 328 329 328 326 325 325 325 326 328 328 328 328 328 328 327 330 334 333 328 325 324 324 323 323 321 319 318 318 319 319 319 318 317 317 315 313 311 307 305 307 307 299
351 330 333 326 307 299 307 326 336 323 311 312 318 321 323 322 318 315 312 311 315 317 317 315 315 314 314 315 316 316 314 315 319 320 317 314 314 316 317 320 324 325 325 326 327 328 328 327 326 325 325 326 328 328 327 328 327 326 326 332 335 332 326 324 326 327 326 324 320 319 320 320 320 320 319 318 319 319 319 320 320 316 308 309 313 311
35 346 355 339 301 301 310 319 324 312 296 300 311 318 318 315 312 310 311 314 317 318 318 316 316 317 318 318 320 320 317 318 321 320 317 314 315 316 318 321 323 325 326 327 328 328 329 327 326 326 326 327 328 328 328 327 326 325 327 334 335 330 325 328 331 328 324 322 319 319 321 320 319 319 319 319 319 319 320 322 327 331 332 328 324 325